This demonstration page uses our WeatherBlox Daily Observations layout. Learn more.

Left ArrowRight Arrow

41.86663, -103.66717

Hourly Observations for March 19, 2016

Temp ( °F °C ) Dew Point ( °F °C ) Humidity (%) Winds ( mph kmh ) Pressure ( in mb ) Visibility ( mi km ) Precip ( " mm )
12:53 am 00:53 Cloudy 26 -3.3 14 -10 60 60 WNW 7 11 30.36 1028 10 16 N/A
1:53 am 01:53 Cloudy 25 -3.9 14 -10 63 63 WNW 6 9 30.37 1028 10 16 N/A
2:53 am 02:53 Cloudy 25 -3.9 13 -10.6 60 60 WNW 9 15 30.36 1028 10 16 N/A
3:53 am 03:53 Mostly Cloudy 23 -5 13 -10.6 65 65 NW 8 13 30.36 1028 10 16 N/A
4:53 am 04:53 Clear 19 -7.2 12 -11.1 74 74 NW 6 9 30.39 1029 10 16 N/A
5:53 am 05:53 Clear 17 -8.3 11 -11.7 77 77 NNW 7 11 30.41 1030 10 16 N/A
6:53 am 06:53 Clear 15 -9.4 10 -12.2 80 80 NW 6 9 30.43 1031 10 16 N/A
7:53 am 07:53 Sunny 19 -7.2 12 -11.1 74 74 WNW 6 9 30.44 1031 10 16 N/A
8:53 am 08:53 Sunny 24 -4.4 13 -10.6 62 62 NW 8 13 30.45 1031 10 16 N/A
9:53 am 09:53 Sunny 31 -0.6 14 -10 49 49 NW 12 19 30.44 1031 10 16 N/A
10:53 am 10:53 Mostly Sunny 35 1.7 10 -12.2 35 35 NNW 24 39 30.42 1030 10 16 N/A
11:53 am 11:53 Mostly Sunny 39 3.9 6 -14.4 25 25 N 20 31 30.40 1030 10 16 N/A
12:53 pm 12:53 Sunny 41 5 2 -16.7 19 19 NNW 25 41 30.38 1029 10 16 N/A
1:53 pm 13:53 Sunny 41 5 N/A 18 18 N 28 44 30.38 1029 10 16 N/A
2:53 pm 14:53 Sunny 42 5.6 -1 -18.3 16 16 NNW 20 31 30.36 1028 10 16 N/A
4:53 pm 16:53 Sunny 42 5.6 -1 -18.3 16 16 N 22 35 30.36 1028 10 16 N/A
5:53 pm 17:53 Sunny 41 5 N/A 18 18 N 17 28 30.38 1029 10 16 N/A
6:53 pm 18:53 Sunny 36 2.2 2 -16.7 23 23 N 12 19 30.41 1030 10 16 N/A
8:53 pm 20:53 Clear 24 -4.4 7 -13.9 48 48 E 9 15 30.46 1032 10 16 N/A
10:53 pm 22:53 Clear 18 -8 9 -13 68 68 E 6 9 30.62 1037 10 16 N/A
11:53 pm 23:53 Clear 18 -7.8 9 -12.8 68 68 E 9 15 30.46 1031 10 16 N/A

Powered by AerisWeather